User: anonymous   Login
Location: Unspecified
(0.0000°N, 0.0000°E)
Time: 07:24:23
(UTC+00:00)
Language:

SL-4 R/B - Orbit

View from above orbital plane
View from above orbital plane
View from above satellite
View from above satellite

Ground track
Ground track

The orbit data is extracted from the following two-line orbital elements,

1 27818U 03023A   18174.99854642  .00000065  00000-0  54487-4 0  9995
2 27818  82.9475 123.0120 0032249 128.3705 232.0342 13.72158114753923
Epoch (UTC): 23 June 2018 23:57:54
Eccentricity: 0.0032249
inclination: 82.9475°
perigee height: 968 km
apogee height: 1015 km
right ascension of ascending node: 123.0120°
argument of perigee: 128.3705°
revolutions per day: 13.72158114
mean anomaly at epoch: 232.0342°
orbit number at epoch: 75392

The dashed part of the orbit path shows where the satellite is in the earth's shadow,  

DLR